IW3HBX-13 Weather Reports


time (UTC)temp
C
wind
direction
speed
KPH
gust
KPH
rain 1hr
cm
rain 24hr
cm
rain mn
cm
humidity
%
barometer
mb
20260507094207 20 314 1.6 4.8 0.00 0.41 0.00 62 1013.9
20260507093607 20 264 1.6 3.2 0.00 0.41 0.00 63 1013.8
20260507093007 19 268 3.2 4.8 0.00 0.41 0.00 64 1013.9
20260507092409 20 269 3.2 6.4 0.00 0.41 0.00 64 1013.9
20260507091807 20 265 3.2 4.8 0.00 0.41 0.00 62 1013.8
20260507091207 19 250 3.2 6.4 0.00 0.41 0.00 62 1013.8
20260507090607 19 245 0.0 0.0 0.00 0.41 0.00 70 1013.9
20260507085407 20 187 1.6 3.2 0.00 0.41 0.00 68 1013.8
20260507084808 18 236 1.6 3.2 0.00 0.41 0.00 70 1013.9
20260507084209 18 238 4.8 8.0 0.00 0.41 0.00 74 1013.8
20260507083607 18 226 1.6 3.2 0.00 0.41 0.00 74 1013.7
20260507083009 19 272 1.6 3.2 0.00 0.41 0.00 73 1013.7
20260507082407 18 286 1.6 4.8 0.00 0.41 0.00 74 1013.7
20260507081809 17 210 0.0 0.0 0.00 0.41 0.00 76 1013.6
20260507081208 17 239 0.0 1.6 0.00 0.41 0.00 81 1013.7
20260507075409 17 233 0.0 3.2 0.00 0.41 0.00 83 1013.6
20260507074808 17 250 3.2 3.2 0.00 0.41 0.00 82 1013.6
20260507074207 17 229 4.8 6.4 0.00 0.41 0.00 82 1013.5
20260507073007 16 227 3.2 8.0 0.00 0.41 0.00 88 1013.5
20260507072410 16 237 1.6 4.8 0.00 0.41 0.00 88 1013.4
20260507071807 17 231 3.2 4.8 0.00 0.41 0.00 87 1013.4
20260507071207 16 243 4.8 6.4 0.00 0.41 0.00 86 1013.3
20260507065410 18 322 1.6 3.2 0.00 0.41 0.00 78 1013.2
20260507064807 18 42 0.0 0.0 0.00 0.41 0.00 78 1013.2
20260507064208 17 53 1.6 4.8 0.00 0.41 0.00 82 1013.2
20260507063009 17 54 0.0 3.2 0.00 0.41 0.00 82 1013.1
20260507062407 18 334 0.0 3.2 0.00 0.41 0.00 82 1013.1
20260507061807 18 276 0.0 0.0 0.00 0.41 0.00 80 1013.1
20260507061207 17 270 0.0 0.0 0.00 0.41 0.00 81 1013.1
20260507055408 15 270 0.0 0.0 0.00 0.41 0.00 92 1013.1
20260507054810 15 270 0.0 0.0 0.00 0.41 0.00 94 1013.0
20260507054207 14 270 0.0 1.6 0.00 0.43 0.00 95 1012.8
20260507053007 13 276 0.0 0.0 0.00 0.43 0.00 96 1012.8
20260507052409 13 276 0.0 3.2 0.00 0.43 0.00 96 1012.8
20260507051809 13 282 0.0 0.0 0.00 0.43 0.00 96 1012.7
20260507051207 13 282 0.0 0.0 0.00 0.43 0.00 96 1012.7
20260507045410 13 282 0.0 0.0 0.00 0.48 0.00 96 1012.6
20260507044807 13 282 0.0 0.0 0.00 0.48 0.00 96 1012.4
20260507044209 13 282 0.0 0.0 0.00 0.48 0.00 96 1012.4
20260507043008 12 285 0.0 0.0 0.00 0.48 0.00 96 1012.3
20260507042409 13 285 0.0 0.0 0.00 0.48 0.00 96 1012.2
20260507041807 12 285 0.0 0.0 0.00 0.48 0.00 96 1012.1
20260507041210 12 285 0.0 0.0 0.00 0.48 0.00 96 1012.0
20260507035407 12 285 0.0 0.0 0.00 0.48 0.00 96 1011.9
20260507034807 12 285 0.0 0.0 0.00 0.48 0.00 96 1011.7
20260507034207 12 285 0.0 0.0 0.00 0.48 0.00 96 1011.7
20260507033007 12 285 0.0 0.0 0.00 0.48 0.00 96 1011.7
20260507032407 12 285 0.0 0.0 0.00 0.48 0.00 96 1011.8
20260507031808 12 285 0.0 0.0 0.00 0.48 0.00 96 1011.8
20260507031207 12 285 0.0 0.0 0.00 0.48 0.00 96 1011.8
20260507025408 12 285 0.0 0.0 0.00 0.48 0.00 96 1011.8
20260507024807 12 285 0.0 0.0 0.00 0.48 0.00 96 1011.7
20260507024207 13 285 0.0 0.0 0.00 0.48 0.00 96 1011.6
20260507023007 13 285 0.0 0.0 0.00 0.48 0.00 96 1011.6
20260507022409 13 285 0.0 0.0 0.00 0.48 0.00 96 1011.7
20260507021807 13 285 0.0 0.0 0.00 0.48 0.00 96 1011.7
20260507021207 13 285 0.0 0.0 0.00 0.48 0.00 96 1011.7
20260507015407 13 285 0.0 0.0 0.00 0.48 0.00 96 1011.5
20260507014809 13 285 0.0 0.0 0.00 0.48 0.00 96 1011.5
20260507014207 13 285 0.0 1.6 0.00 0.48 0.00 96 1011.5
20260507013610 13 294 1.6 3.2 0.00 0.48 0.00 96 1011.6
20260507013007 13 300 0.0 3.2 0.00 0.48 0.00 96 1011.6
20260507012407 13 300 0.0 3.2 0.00 0.48 0.00 95 1011.7
20260507011807 13 294 1.6 3.2 0.00 0.48 0.00 95 1011.6
20260507011209 13 294 0.0 3.2 0.00 0.48 0.00 95 1011.7
20260507005408 14 299 0.0 4.8 0.00 0.48 0.00 95 1011.7
20260507004807 14 288 0.0 3.2 0.00 0.48 0.00 94 1011.7
20260507004207 14 354 0.0 3.2 0.00 0.48 0.00 94 1011.7
20260507003607 14 66 1.6 3.2 0.00 0.48 0.00 94 1011.6
20260507003007 14 72 0.0 0.0 0.00 0.48 0.00 94 1011.5
20260507002407 14 78 1.6 3.2 0.00 0.48 0.00 94 1011.4
20260507001808 14 73 0.0 3.2 0.00 0.48 0.00 94 1011.4
20260507001209 14 4 1.6 3.2 0.00 0.48 0.00 94 1011.4
20260506235407 14 57 0.0 0.0 0.00 0.48 0.00 94 1011.7
20260506234807 14 57 0.0 0.0 0.00 0.48 0.00 94 1011.8
20260506234208 14 57 0.0 0.0 0.00 0.48 0.00 94 1011.6
20260506233607 13 57 0.0 0.0 0.00 0.48 0.00 94 1011.7
20260506233010 13 57 0.0 0.0 0.00 0.48 0.00 94 1011.6
20260506232410 14 57 3.2 3.2 0.00 0.48 0.00 94 1011.6
20260506231807 14 72 0.0 0.0 0.00 0.48 0.00 94 1011.5
20260506231210 14 72 0.0 0.0 0.00 0.48 0.00 94 1011.5
20260506230607 14 72 0.0 0.0 0.00 0.48 0.00 94 1011.6
20260506225407 14 61 0.0 0.0 0.00 0.48 0.00 94 1011.6
20260506224808 14 61 0.0 0.0 0.00 0.48 0.00 94 1011.5
20260506224209 14 61 0.0 3.2 0.00 0.48 0.00 93 1011.5
20260506223607 14 61 4.8 6.4 0.00 0.48 0.00 93 1011.5
20260506223007 14 56 0.0 0.0 0.00 0.48 0.00 93 1011.5
20260506222407 14 60 0.0 0.0 0.00 0.48 0.00 93 1011.5
20260506221810 14 56 0.0 0.0 0.00 0.48 0.00 93 1011.5
20260506221207 14 56 0.0 0.0 0.00 0.48 0.00 93 1011.6
20260506220607 14 56 0.0 0.0 0.00 0.48 0.00 93 1011.5
20260506215407 15 65 0.0 0.0 0.00 0.48 0.48 93 1011.4
20260506214807 14 68 0.0 3.2 0.00 0.48 0.48 93 1011.3
20260506214208 15 72 0.0 0.0 0.00 0.48 0.48 92 1011.3
20260506213610 15 72 0.0 0.0 0.00 0.48 0.48 92 1011.3
20260506213007 15 72 0.0 0.0 0.00 0.48 0.48 92 1011.4
20260506212407 15 70 0.0 1.6 0.00 0.48 0.48 92 1011.4
20260506211807 15 70 1.6 3.2 0.00 0.48 0.48 92 1011.4
20260506211207 15 70 1.6 3.2 0.00 0.48 0.48 92 1011.3
20260506210607 15 70 0.0 1.6 0.00 0.48 0.48 92 1011.3
20260506205408 15 70 0.0 0.0 0.00 0.48 0.48 91 1011.2
20260506204807 15 73 3.2 4.8 0.00 0.48 0.48 91 1011.3
20260506204207 15 74 4.8 6.4 0.00 0.48 0.48 91 1011.4
20260506203610 15 69 3.2 6.4 0.00 0.48 0.48 91 1011.4
20260506203009 15 69 0.0 1.6 0.00 0.48 0.48 92 1011.3
20260506202409 15 69 3.2 4.8 0.00 0.48 0.48 91 1011.3
20260506201807 15 77 4.8 6.4 0.00 0.48 0.48 92 1011.2
20260506201208 15 82 3.2 6.4 0.00 0.48 0.48 92 1011.1
20260506200610 15 70 1.6 3.2 0.00 0.48 0.48 92 1011.1
20260506195407 15 30 3.2 6.4 0.00 0.48 0.48 92 1010.9
20260506194807 15 38 3.2 3.2 0.00 0.48 0.48 92 1010.8
20260506194210 15 67 1.6 3.2 0.00 0.48 0.48 92 1010.8
20260506193607 15 67 0.0 3.2 0.00 0.48 0.48 92 1010.8
20260506193009 16 70 0.0 3.2 0.00 0.48 0.48 92 1010.7
20260506192410 16 69 0.0 6.4 0.00 0.48 0.48 92 1010.8
20260506191807 16 70 1.6 4.8 0.00 0.48 0.48 92 1010.8
20260506191207 16 76 3.2 6.4 0.00 0.48 0.48 92 1010.6
20260506190608 16 67 4.8 6.4 0.00 0.48 0.48 92 1010.7
20260506185410 16 68 4.8 6.4 0.00 0.48 0.48 91 1010.4
20260506184807 16 77 3.2 3.2 0.00 0.48 0.48 91 1010.4
20260506184207 16 58 4.8 8.0 0.00 0.48 0.48 90 1010.4
20260506183610 16 64 6.4 8.0 0.00 0.48 0.48 90 1010.3
20260506183008 16 65 8.0 9.7 0.00 0.48 0.48 90 1010.2
20260506182408 16 50 1.6 4.8 0.00 0.48 0.48 90 1010.2
20260506181807 17 62 0.0 0.0 0.00 0.48 0.48 90 1010.3
20260506181207 17 62 0.0 3.2 0.00 0.48 0.48 90 1010.3
20260506180607 17 63 0.0 0.0 0.00 0.48 0.48 89 1010.2
20260506175407 17 63 1.6 3.2 0.00 0.48 0.48 89 1010.1
20260506174807 17 69 0.0 3.2 0.00 0.48 0.48 89 1010.0
20260506174207 17 61 1.6 4.8 0.00 0.48 0.48 88 1009.9
20260506173607 17 77 3.2 6.4 0.00 0.48 0.48 88 1009.8
20260506173007 17 76 4.8 6.4 0.00 0.48 0.48 87 1009.9
20260506172407 17 77 3.2 3.2 0.00 0.48 0.48 87 1009.9
20260506171810 17 76 0.0 1.6 0.00 0.48 0.48 87 1009.9
20260506171207 17 57 1.6 3.2 0.00 0.48 0.48 87 1009.9
20260506170607 17 76 0.0 3.2 0.00 0.48 0.48 87 1009.7
20260506165407 17 76 3.2 3.2 0.00 0.48 0.48 86 1009.8
20260506164810 17 78 3.2 4.8 0.00 0.48 0.48 86 1009.8
20260506164207 17 79 1.6 3.2 0.00 0.48 0.48 85 1009.7
20260506163608 17 79 0.0 3.2 0.00 0.48 0.48 85 1009.8
20260506163010 17 79 4.8 6.4 0.00 0.48 0.48 85 1010.0
20260506162407 17 72 3.2 6.4 0.00 0.48 0.48 84 1010.0
20260506161807 17 62 0.0 3.2 0.00 0.48 0.48 85 1010.0
20260506161212 17 75 1.6 6.4 0.00 0.48 0.48 87 1009.9
20260506160608 17 87 1.6 3.2 0.00 0.48 0.48 88 1010.0
20260506155409 17 76 3.2 8.0 0.00 0.48 0.48 88 1010.0
20260506154807 17 66 4.8 4.8 0.00 0.48 0.48 88 1010.0
20260506154207 17 58 4.8 8.0 0.00 0.48 0.48 89 1009.8
20260506153610 17 76 1.6 3.2 0.00 0.48 0.48 89 1009.9
20260506153007 17 78 0.0 1.6 0.00 0.48 0.48 89 1009.9
20260506152407 17 80 0.0 3.2 0.00 0.48 0.48 89 1009.9
20260506151807 17 98 3.2 6.4 0.00 0.48 0.48 89 1009.8
20260506151207 17 86 3.2 8.0 0.00 0.48 0.48 89 1009.9
20260506150610 17 82 6.4 8.0 0.00 0.48 0.48 89 1010.0
20260506145408 17 62 1.6 3.2 0.00 0.48 0.48 90 1010.1
20260506144807 17 74 3.2 4.8 0.00 0.48 0.48 91 1010.1
20260506144209 17 67 3.2 3.2 0.05 0.48 0.48 90 1010.1
20260506143607 16 66 0.0 3.2 0.05 0.48 0.48 91 1010.0
20260506142407 16 80 3.2 4.8 0.13 0.48 0.48 92 1010.0
20260506141807 16 84 1.6 4.8 0.15 0.48 0.48 92 1010.0
20260506141208 16 62 3.2 6.4 0.15 0.48 0.48 92 1010.0
20260506140610 16 69 3.2 6.4 0.23 0.48 0.48 93 1010.0
20260506135407 16 68 0.0 3.2 0.33 0.51 0.48 94 1010.2
20260506134807 16 67 1.6 4.8 0.33 0.51 0.48 93 1010.3
20260506134214 16 81 4.8 6.4 0.28 0.48 0.43 93 1010.4
20260506133607 16 72 3.2 6.4 0.28 0.48 0.43 93 1010.5
20260506132410 16 85 4.8 8.0 0.20 0.41 0.36 92 1010.5
20260506131812 16 78 4.8 6.4 0.20 0.41 0.36 91 1010.6
20260506131207 16 79 3.2 6.4 0.15 0.36 0.33 91 1010.6
20260506130607 16 79 3.2 6.4 0.08 0.28 0.23 89 1010.6
20260506125407 17 143 1.6 3.2 0.00 0.20 0.15 87 1010.7
20260506124807 17 108 0.0 3.2 0.00 0.20 0.15 87 1010.6
20260506124207 17 80 4.8 8.0 0.00 0.20 0.15 86 1010.6
20260506123609 17 91 3.2 6.4 0.00 0.23 0.15 84 1010.7
20260506122413 17 84 3.2 4.8 0.00 0.23 0.15 81 1010.8
20260506121807 17 88 4.8 8.0 0.00 0.23 0.15 81 1010.8
20260506121208 18 88 3.2 3.2 0.00 0.23 0.15 81 1010.7
20260506120607 17 71 4.8 8.0 0.00 0.23 0.15 83 1010.8
20260506115408 17 69 1.6 3.2 0.00 0.23 0.15 82 1011.0
20260506114807 17 63 4.8 8.0 0.00 0.23 0.15 84 1011.1
20260506114207 17 74 3.2 6.4 0.00 0.23 0.15 83 1011.1
20260506113607 17 70 3.2 6.4 0.00 0.23 0.15 83 1011.0
20260506112407 17 71 3.2 6.4 0.00 0.23 0.15 83 1011.2
20260506111809 17 55 3.2 4.8 0.00 0.23 0.15 84 1011.4
20260506111207 17 92 1.6 3.2 0.00 0.23 0.15 85 1011.4
20260506110607 16 111 1.6 3.2 0.05 0.23 0.15 85 1011.4
20260506105407 16 94 3.2 4.8 0.05 0.23 0.15 87 1011.5
20260506104807 16 85 3.2 3.2 0.05 0.23 0.15 87 1011.6
20260506104207 16 48 3.2 4.8 0.08 0.23 0.15 87 1011.5
20260506103609 16 79 1.6 3.2 0.08 0.23 0.15 86 1011.7
20260506102409 16 71 1.6 3.2 0.08 0.23 0.15 85 1011.6
20260506102328 16 56 0.0 3.2 0.08 0.23 0.15 89 1011.7
20260506101807 16 56 0.0 3.2 0.08 0.23 0.15 89 1011.7
20260506101207 16 73 1.6 3.2 0.08 0.23 0.15 89 1011.8
20260506100607 16 134 0.0 3.2 0.05 0.20 0.13 89 1011.9
20260506095600 17 178 0.0 0.0 0.05 0.20 0.13 87 1011.7
20260506095408 16 174 0.0 0.0 0.05 0.20 0.13 88 1011.7
20260506094807 17 178 0.0 0.0 0.05 0.20 0.13 87 1011.7